�������l�o���
Date,Time,MP-1(��Sv/h),MP-2(��Sv/h),MP-3(��Sv/h),MP-4(��Sv/h),MP-5(��Sv/h),MP-6(��Sv/h),MP-7(��Sv/h),MP-8(��Sv/h),����,����(m/s),���J
2021/10/08,00:00,0.584,0.872,0.557,1.055,0.750,0.357,0.619,0.578,��,8.8,��
2021/10/08,00:10,0.583,0.872,0.558,1.054,0.750,0.357,0.620,0.580,��,8.8,��
2021/10/08,00:20,0.583,0.873,0.556,1.056,0.750,0.358,0.620,0.583,��쐼,8.8,��
2021/10/08,00:30,0.583,0.874,0.557,1.055,0.750,0.358,0.621,0.579,��쐼,9.5,��
2021/10/08,00:40,0.584,0.873,0.559,1.055,0.750,0.359,0.622,0.579,��쐼,7.9,��
2021/10/08,00:50,0.582,0.873,0.557,1.056,0.750,0.358,0.621,0.581,��쐼,7.5,��
2021/10/08,01:00,0.584,0.873,0.556,1.056,0.748,0.357,0.621,0.581,��쐼,7.3,��
2021/10/08,01:10,0.583,0.873,0.558,1.056,0.750,0.359,0.621,0.581,��쐼,8.3,��
2021/10/08,01:20,0.583,0.873,0.558,1.058,0.751,0.358,0.620,0.582,��,8.6,��
2021/10/08,01:30,0.583,0.872,0.558,1.055,0.749,0.358,0.621,0.580,��,7.1,��
2021/10/08,01:40,0.582,0.871,0.557,1.056,0.751,0.357,0.621,0.582,��쐼,6.4,��
2021/10/08,01:50,0.585,0.875,0.558,1.055,0.750,0.358,0.622,0.581,��쐼,6.7,��
2021/10/08,02:00,0.581,0.873,0.557,1.053,0.752,0.358,0.621,0.582,�쐼,6.8,��
2021/10/08,02:10,0.583,0.874,0.558,1.056,0.750,0.358,0.624,0.581,�쐼,5.7,��
2021/10/08,02:20,0.583,0.874,0.557,1.055,0.750,0.359,0.621,0.582,��쐼,5.0,��
2021/10/08,02:30,0.583,0.875,0.557,1.055,0.752,0.357,0.621,0.582,��쐼,4.6,��
2021/10/08,02:40,0.584,0.875,0.558,1.055,0.749,0.358,0.622,0.582,��쐼,5.5,��
2021/10/08,02:50,0.584,0.872,0.558,1.055,0.751,0.358,0.621,0.581,�쐼,4.4,��
2021/10/08,03:00,0.582,0.873,0.557,1.058,0.752,0.359,0.620,0.581,�쐼,4.7,��
2021/10/08,03:10,0.585,0.870,0.558,1.056,0.751,0.357,0.621,0.582,��쐼,4.9,��
2021/10/08,03:20,0.585,0.873,0.557,1.055,0.750,0.359,0.621,0.581,��쐼,5.2,��
2021/10/08,03:30,0.588,0.871,0.557,1.057,0.751,0.357,0.621,0.581,��쐼,5.8,��
2021/10/08,03:40,0.585,0.872,0.557,1.056,0.751,0.357,0.620,0.582,��쐼,4.9,��
2021/10/08,03:50,0.585,0.872,0.558,1.057,0.751,0.357,0.622,0.580,��쐼,4.5,��
2021/10/08,04:00,0.585,0.872,0.557,1.058,0.750,0.357,0.620,0.580,��쐼,4.5,��
2021/10/08,04:10,0.585,0.870,0.557,1.056,0.750,0.359,0.620,0.583,��쐼,4.9,��
2021/10/08,04:20,0.586,0.872,0.556,1.058,0.751,0.357,0.619,0.581,��쐼,3.4,��
2021/10/08,04:30,0.586,0.873,0.556,1.054,0.750,0.359,0.621,0.582,��,3.5,��
2021/10/08,04:40,0.585,0.872,0.557,1.053,0.750,0.358,0.620,0.580,��쐼,5.2,��
2021/10/08,04:50,0.585,0.871,0.557,1.057,0.750,0.358,0.621,0.583,��쐼,6.4,��
2021/10/08,05:00,0.586,0.870,0.556,1.056,0.751,0.358,0.621,0.582,��쐼,6.7,��
2021/10/08,05:10,0.585,0.872,0.555,1.055,0.751,0.358,0.620,0.580,��쐼,6.1,��
2021/10/08,05:20,0.585,0.871,0.558,1.056,0.751,0.358,0.621,0.581,��쐼,7.2,��
2021/10/08,05:30,0.585,0.871,0.556,1.058,0.751,0.358,0.620,0.581,��쐼,8.1,��
2021/10/08,05:40,0.587,0.872,0.557,1.058,0.751,0.358,0.620,0.581,��쐼,6.8,��
2021/10/08,05:50,0.584,0.872,0.557,1.056,0.750,0.357,0.620,0.581,��쐼,6.8,��
2021/10/08,06:00,0.586,0.872,0.557,1.056,0.750,0.357,0.619,0.581,��쐼,6.6,��
2021/10/08,06:10,0.584,0.869,0.557,1.056,0.751,0.358,0.620,0.580,��,3.6,��
2021/10/08,06:20,0.587,0.871,0.557,1.056,0.750,0.358,0.622,0.582,��쐼,2.6,��
2021/10/08,06:30,0.586,0.871,0.557,1.055,0.750,0.357,0.620,0.583,��,1.7,��
2021/10/08,06:40,0.585,0.870,0.557,1.057,0.750,0.358,0.619,0.581,��,2.2,��
2021/10/08,06:50,0.586,0.873,0.558,1.054,0.751,0.358,0.620,0.582,��,4.0,��
2021/10/08,07:00,0.586,0.870,0.556,1.057,0.752,0.358,0.619,0.581,��,4.9,��
2021/10/08,07:10,0.586,0.873,0.558,1.058,0.752,0.358,0.621,0.580,��,5.2,��
2021/10/08,07:20,0.586,0.871,0.556,1.056,0.753,0.359,0.620,0.583,��,4.2,��
2021/10/08,07:30,0.585,0.868,0.558,1.056,0.750,0.357,0.619,0.582,��쐼,3.9,��
2021/10/08,07:40,0.584,0.870,0.558,1.058,0.751,0.358,0.619,0.579,��,4.6,��
2021/10/08,07:50,0.585,0.869,0.556,1.058,0.752,0.358,0.619,0.581,��쓌,4.5,��
2021/10/08,08:00,0.585,0.869,0.556,1.056,0.751,0.357,0.621,0.581,��쓌,5.0,��
2021/10/08,08:10,0.585,0.869,0.556,1.056,0.750,0.357,0.620,0.582,��,5.5,��
2021/10/08,08:20,0.583,0.869,0.558,1.057,0.750,0.357,0.619,0.581,��쓌,5.5,��
2021/10/08,08:30,0.584,0.868,0.555,1.059,0.750,0.358,0.619,0.581,��쓌,6.0,��
2021/10/08,08:40,0.584,0.871,0.557,1.058,0.751,0.357,0.618,0.582,��쓌,5.4,��
2021/10/08,08:50,0.584,0.869,0.557,1.055,0.752,0.357,0.618,0.581,��쓌,4.4,��
2021/10/08,09:00,0.584,0.868,0.556,1.060,0.751,0.357,0.620,0.581,��쓌,4.0,��
2021/10/08,09:10,0.586,0.870,0.558,1.060,0.752,0.357,0.619,0.579,��쓌,4.2,��
2021/10/08,09:20,0.585,0.871,0.557,1.057,0.752,0.358,0.619,0.580,��쓌,3.6,��
2021/10/08,09:30,0.586,0.872,0.558,1.059,0.751,0.357,0.619,0.579,��쓌,2.9,��
2021/10/08,09:40,0.586,0.873,0.558,1.060,0.752,0.356,0.620,0.580,��쓌,2.3,��
2021/10/08,09:50,0.586,0.870,0.557,1.057,0.751,0.358,0.619,0.580,��쓌,2.0,��
2021/10/08,10:00,0.586,0.871,0.556,1.061,0.752,0.357,0.621,0.580,��쓌,1.7,��
2021/10/08,10:10,0.586,0.871,0.557,1.059,0.753,0.357,0.620,0.580,��쓌,2.6,��
2021/10/08,10:20,0.587,0.873,0.558,1.059,0.753,0.356,0.619,0.579,��쓌,2.5,��
2021/10/08,10:30,0.587,0.872,0.558,1.059,0.753,0.357,0.619,0.580,��쓌,2.6,��
2021/10/08,10:40,0.585,0.871,0.557,1.058,0.754,0.356,0.619,0.580,��쓌,4.2,��
2021/10/08,10:50,0.587,0.872,0.556,1.059,0.752,0.357,0.619,0.579,��,2.2,��
2021/10/08,11:00,0.587,0.872,0.557,1.060,0.752,0.358,0.619,0.581,���k��,2.3,��
2021/10/08,11:10,0.588,0.871,0.560,1.058,0.755,0.357,0.619,0.580,��,1.7,��
2021/10/08,11:20,0.588,0.871,0.558,1.058,0.755,0.357,0.620,0.579,���k��,6.2,��
2021/10/08,11:30,0.588,0.873,0.558,1.059,0.752,0.358,0.622,0.582,���쐼,5.6,��
2021/10/08,11:40,0.586,0.874,0.559,1.062,0.755,0.357,0.621,0.580,���쐼,6.0,��
2021/10/08,11:50,0.589,0.873,0.560,1.061,0.757,0.360,0.622,0.581,���쐼,5.4,��
2021/10/08,12:00,0.588,0.873,0.559,1.061,0.756,0.359,0.622,0.580,���쐼,5.1,��
2021/10/08,12:10,0.589,0.875,0.562,1.060,0.755,0.360,0.619,0.581,��,4.3,��
2021/10/08,12:20,0.587,0.874,0.560,1.062,0.757,0.360,0.622,0.581,��,4.0,��
2021/10/08,12:30,0.588,0.877,0.561,1.063,0.756,0.359,0.622,0.580,��,5.0,��
2021/10/08,12:40,0.589,0.872,0.559,1.064,0.757,0.360,0.622,0.580,��,3.1,��
2021/10/08,12:50,0.589,0.877,0.562,1.061,0.756,0.359,0.621,0.582,��,6.1,��
2021/10/08,13:00,0.590,0.873,0.562,1.062,0.758,0.360,0.622,0.581,���쐼,4.9,��
2021/10/08,13:10,0.590,0.875,0.560,1.062,0.758,0.360,0.622,0.582,��,5.8,��
2021/10/08,13:20,0.587,0.875,0.561,1.062,0.757,0.361,0.623,0.581,��,5.2,��
2021/10/08,13:30,0.591,0.876,0.561,1.064,0.757,0.359,0.622,0.582,��,4.2,��
2021/10/08,13:40,0.588,0.875,0.561,1.061,0.757,0.360,0.621,0.581,���쐼,4.8,��
2021/10/08,13:50,0.590,0.875,0.562,1.064,0.757,0.361,0.623,0.581,��,5.0,��
2021/10/08,14:00,0.588,0.875,0.561,1.063,0.758,0.361,0.622,0.582,��,4.5,��
2021/10/08,14:10,0.588,0.875,0.560,1.063,0.758,0.362,0.622,0.580,��,1.2,��
2021/10/08,14:20,0.590,0.875,0.560,1.065,0.760,0.359,0.623,0.581,��,1.7,��
2021/10/08,14:30,0.588,0.875,0.561,1.063,0.756,0.360,0.622,0.582,-,CALM,��
2021/10/08,14:40,0.589,0.876,0.561,1.067,0.758,0.360,0.622,0.580,���쓌,0.6,��
2021/10/08,14:50,0.588,0.877,0.560,1.063,0.758,0.360,0.622,0.582,�k,1.2,��
2021/10/08,15:00,0.589,0.877,0.560,1.066,0.757,0.361,0.623,0.581,-,CALM,��
2021/10/08,15:10,0.587,0.875,0.559,1.064,0.760,0.360,0.622,0.580,��,0.9,��
2021/10/08,15:20,0.588,0.877,0.559,1.063,0.758,0.361,0.622,0.581,���쓌,0.9,��
2021/10/08,15:30,0.588,0.875,0.562,1.066,0.759,0.359,0.621,0.579,-,CALM,��
2021/10/08,15:40,0.589,0.876,0.560,1.065,0.760,0.360,0.621,0.581,�k��,1.2,��
2021/10/08,15:50,0.588,0.876,0.561,1.065,0.758,0.359,0.619,0.581,�k�k��,0.9,��
2021/10/08,16:00,0.589,0.876,0.560,1.063,0.760,0.359,0.620,0.580,�k��,1.2,��
2021/10/08,16:10,0.589,0.875,0.561,1.064,0.760,0.360,0.620,0.581,�k,1.9,��
2021/10/08,16:20,0.590,0.875,0.561,1.065,0.759,0.360,0.622,0.582,�k,2.3,��
2021/10/08,16:30,0.590,0.877,0.564,1.064,0.759,0.359,0.623,0.584,�k,2.9,��
2021/10/08,16:40,0.589,0.877,0.563,1.065,0.761,0.359,0.621,0.582,�k�k��,2.0,��
2021/10/08,16:50,0.588,0.876,0.564,1.063,0.760,0.360,0.622,0.582,�k,2.2,��
2021/10/08,17:00,0.588,0.876,0.563,1.063,0.759,0.359,0.622,0.582,�k�k��,1.4,��
2021/10/08,17:10,0.587,0.879,0.563,1.066,0.760,0.359,0.623,0.581,�k�k��,1.7,��
2021/10/08,17:20,0.590,0.879,0.563,1.065,0.759,0.360,0.622,0.583,�k,1.7,��
2021/10/08,17:30,0.590,0.881,0.562,1.064,0.759,0.359,0.623,0.583,�k,1.4,��
2021/10/08,17:40,0.591,0.881,0.562,1.065,0.759,0.359,0.623,0.584,�k�k��,1.5,��
2021/10/08,17:50,0.589,0.879,0.562,1.064,0.761,0.361,0.622,0.582,�k�k��,1.4,��
2021/10/08,18:00,0.588,0.879,0.562,1.065,0.761,0.359,0.622,0.582,�k�k��,1.9,��
2021/10/08,18:10,0.589,0.879,0.562,1.065,0.759,0.360,0.621,0.583,�k��,2.9,��
2021/10/08,18:20,0.589,0.881,0.563,1.063,0.760,0.359,0.622,0.584,�k�k��,3.3,��
2021/10/08,18:30,0.589,0.881,0.562,1.067,0.761,0.358,0.622,0.583,�k��,3.5,��
2021/10/08,18:40,0.590,0.880,0.562,1.065,0.759,0.360,0.622,0.584,�k�k��,3.6,��
2021/10/08,18:50,0.588,0.880,0.563,1.066,0.761,0.359,0.622,0.582,�k�k��,4.2,��
2021/10/08,19:00,0.589,0.878,0.563,1.065,0.761,0.360,0.623,0.582,�k�k��,5.0,��
2021/10/08,19:10,0.590,0.880,0.564,1.067,0.761,0.358,0.623,0.584,�k�k��,5.4,��
2021/10/08,19:20,0.590,0.882,0.562,1.063,0.758,0.360,0.622,0.582,�k�k��,6.0,��
2021/10/08,19:30,0.589,0.879,0.562,1.065,0.759,0.359,0.622,0.583,�k�k��,5.1,��
2021/10/08,19:40,0.590,0.879,0.562,1.068,0.758,0.359,0.623,0.582,�k�k��,6.1,��
2021/10/08,19:50,0.590,0.880,0.562,1.066,0.758,0.360,0.622,0.583,�k�k��,6.3,��
2021/10/08,20:00,0.589,0.880,0.563,1.065,0.759,0.359,0.622,0.584,�k�k��,6.3,��
2021/10/08,20:10,0.589,0.878,0.562,1.065,0.759,0.360,0.621,0.583,�k�k��,7.0,��
2021/10/08,20:20,0.591,0.878,0.562,1.065,0.758,0.359,0.623,0.584,�k�k��,6.9,��
2021/10/08,20:30,0.590,0.880,0.563,1.067,0.761,0.360,0.622,0.582,�k�k��,7.9,��
2021/10/08,20:40,0.589,0.879,0.561,1.066,0.759,0.361,0.623,0.585,�k�k��,7.3,��
2021/10/08,20:50,0.589,0.878,0.562,1.069,0.759,0.359,0.623,0.584,�k�k��,7.5,��
2021/10/08,21:00,0.590,0.879,0.560,1.066,0.761,0.359,0.622,0.583,�k�k��,7.2,��
2021/10/08,21:10,0.588,0.881,0.561,1.068,0.761,0.359,0.623,0.583,�k�k��,6.7,��
2021/10/08,21:20,0.588,0.878,0.561,1.065,0.759,0.358,0.621,0.584,�k�k��,6.1,��
2021/10/08,21:30,0.589,0.881,0.563,1.065,0.759,0.358,0.622,0.582,�k�k��,6.4,��
2021/10/08,21:40,0.588,0.879,0.562,1.066,0.759,0.357,0.620,0.583,�k�k��,6.4,��
2021/10/08,21:50,0.589,0.880,0.562,1.067,0.759,0.357,0.621,0.582,�k�k��,6.2,��
2021/10/08,22:00,0.588,0.881,0.560,1.068,0.759,0.358,0.622,0.584,�k,5.3,��
2021/10/08,22:10,0.587,0.879,0.561,1.067,0.759,0.358,0.621,0.584,�k,4.7,��
2021/10/08,22:20,0.588,0.879,0.561,1.067,0.760,0.357,0.621,0.582,�k,5.3,��
2021/10/08,22:30,0.588,0.879,0.561,1.066,0.758,0.356,0.622,0.583,�k,4.7,��
2021/10/08,22:40,0.587,0.879,0.561,1.067,0.758,0.358,0.620,0.583,�k,4.4,��
2021/10/08,22:50,0.588,0.879,0.560,1.064,0.759,0.357,0.621,0.585,�k�k��,4.5,��
2021/10/08,23:00,0.588,0.878,0.561,1.068,0.758,0.357,0.621,0.581,�k,4.3,��
2021/10/08,23:10,0.589,0.877,0.560,1.063,0.759,0.357,0.622,0.585,�k�k��,3.8,��
2021/10/08,23:20,0.587,0.878,0.561,1.065,0.758,0.357,0.621,0.583,�k,3.6,��
2021/10/08,23:30,0.587,0.877,0.560,1.067,0.758,0.357,0.621,0.583,�k,5.2,��
2021/10/08,23:40,0.589,0.878,0.560,1.066,0.760,0.356,0.621,0.582,�k,4.7,��
2021/10/08,23:50,0.587,0.876,0.559,1.067,0.758,0.357,0.620,0.583,�k�k��,4.4,��
